QPF
0.00 0.00 0.00 0.00 0.01 0.01 0.01 0.00 0.00 0.00 0.01 0.00 0.00 0.00 0.00 0.01 0.01 0.01 0.00 0.01 0.01 0.01 0.01 0.01 0.01 0.02 0.01 0.01 0.02 0.02 0.01 0.01 0.02 0.02 0.02 0.02 0.04 0.03 0.03 0.03 0.03 0.02 0.01 0.01 0.02 0.03 0.03 0.04 0.03
0.00 0.01 0.00 0.00 0.00 0.02 0.02 0.00 0.00 0.00 0.01 0.01 0.00 0.00 0.00 0.00 0.01 0.00 0.00 0.00 0.00 0.00 0.01 0.01 0.01 0.02 0.01 0.01 0.01 0.02 0.02 0.01 0.02 0.02 0.02 0.02 0.02 0.02 0.02 0.03 0.02 0.01 0.01 0.01 0.01 0.02 0.01 0.01 0.02
0.01 0.01 0.00 0.00 0.00 0.01 0.01 0.00 0.00 0.00 0.01 0.01 0.00 0.00 0.00 0.00 0.00 0.00 0.00 0.00 0.00 0.00 0.01 0.02 0.02 0.02 0.01 0.01 0.02 0.03 0.03 0.02 0.02 0.02 0.02 0.01 0.01 0.02 0.02 0.02 0.01 0.01 0.01 0.01 0.01 0.01 0.01 0.01 0.01
0.01 0.00 0.00 0.00 0.00 0.00 0.00 0.00 0.00 0.00 0.00 0.01 0.00 0.00 0.00 0.00 0.00 0.00 0.00 0.00 0.00 0.00 0.01 0.03 0.04 0.02 0.02 0.02 0.02 0.03 0.03 0.02 0.02 0.02 0.02 0.02 0.01 0.02 0.02 0.01 0.01 0.01 0.01 0.01 0.01 0.01 0.01 0.00 0.01
0.01 0.00 0.00 0.00 0.00 0.00 0.00 0.00 0.00 0.00 0.00 0.01 0.00 0.00 0.00 0.00 0.00 0.00 0.00 0.00 0.00 0.00 0.01 0.02 0.03 0.04 0.04 0.04 0.03 0.03 0.04 0.03 0.03 0.02 0.02 0.02 0.02 0.01 0.01 0.01 0.01 0.01 0.01 0.01 0.01 0.00 0.00 0.00 0.01
0.01 0.01 0.01 0.00 0.00 0.00 0.00 0.00 0.00 0.00 0.01 0.01 0.00 0.00 0.00 0.00 0.00 0.00 0.00 0.00 0.01 0.01 0.01 0.01 0.02 0.03 0.05 0.05 0.05 0.03 0.04 0.05 0.05 0.03 0.02 0.02 0.01 0.01 0.00 0.01 0.01 0.01 0.01 0.01 0.01 0.01 0.00 0.00 0.00
0.01 0.01 0.01 0.00 0.00 0.00 0.00 0.00 0.00 0.00 0.01 0.01 0.01 0.00 0.00 0.00 0.00 0.00 0.00 0.00 0.00 0.01 0.01 0.01 0.02 0.03 0.05 0.05 0.05 0.04 0.04 0.05 0.05 0.04 0.02 0.02 0.01 0.01 0.01 0.01 0.01 0.01 0.01 0.01 0.01 0.01 0.00 0.00 0.00
0.00 0.00 0.00 0.00 0.00 0.00 0.00 0.00 0.00 0.00 0.00 0.01 0.01 0.00 0.00 0.00 0.00 0.00 0.00 0.00 0.01 0.01 0.01 0.01 0.01 0.02 0.02 0.03 0.04 0.04 0.04 0.06 0.08 0.07 0.05 0.03 0.02 0.01 0.01 0.01 0.01 0.01 0.01 0.01 0.01 0.00 0.00 0.00 0.00
0.00 0.01 0.00 0.00 0.01 0.00 0.00 0.00 0.00 0.00 0.00 0.00 0.01 0.01 0.00 0.00 0.00 0.00 0.01 0.01 0.01 0.02 0.01 0.01 0.01 0.01 0.02 0.02 0.04 0.05 0.05 0.06 0.07 0.07 0.05 0.03 0.02 0.01 0.01 0.01 0.01 0.02 0.02 0.01 0.01 0.01 0.01 0.00 0.00
0.00 0.00 0.00 0.00 0.00 0.00 0.00 0.00 0.00 0.00 0.01 0.01 0.01 0.01 0.00 0.00 0.00 0.00 0.01 0.01 0.02 0.02 0.02 0.01 0.01 0.01 0.01 0.02 0.04 0.05 0.05 0.05 0.05 0.05 0.06 0.05 0.04 0.04 0.02 0.01 0.01 0.02 0.03 0.02 0.02 0.02 0.01 0.01 0.00
0.00 0.00 0.00 0.00 0.00 0.00 0.00 0.00 0.00 0.00 0.01 0.01 0.01 0.01 0.00 0.00 0.00 0.00 0.00 0.00 0.01 0.02 0.02 0.02 0.02 0.02 0.01 0.01 0.03 0.04 0.04 0.05 0.05 0.03 0.04 0.05 0.06 0.05 0.04 0.02 0.01 0.02 0.02 0.02 0.02 0.01 0.02 0.02 0.01
0.00 0.00 0.00 0.00 0.00 0.00 0.00 0.00 0.00 0.00 0.00 0.01 0.00 0.00 0.00 0.00 0.00 0.00 0.00 0.00 0.00 0.01 0.01 0.02 0.03 0.03 0.02 0.02 0.03 0.03 0.03 0.03 0.04 0.03 0.02 0.03 0.04 0.05 0.04 0.03 0.02 0.01 0.02 0.02 0.02 0.02 0.02 0.02 0.02
0.00 0.00 0.00 0.00 0.00 0.00 0.00 0.00 0.00 0.00 0.00 0.00 0.00 0.00 0.00 0.00 0.00 0.00 0.00 0.01 0.01 0.00 0.01 0.01 0.03 0.03 0.03 0.03 0.03 0.03 0.04 0.03 0.03 0.02 0.01 0.01 0.02 0.02 0.02 0.02 0.01 0.01 0.01 0.01 0.01 0.01 0.02 0.02 0.02
0.00 0.00 0.00 0.00 0.00 0.00 0.00 0.00 0.00 0.00 0.00 0.00 0.00 0.00 0.00 0.00 0.00 0.00 0.00 0.00 0.00 0.00 0.00 0.01 0.01 0.03 0.04 0.04 0.04 0.04 0.04 0.04 0.03 0.02 0.01 0.00 0.00 0.00 0.00 0.01 0.01 0.00 0.00 0.00 0.00 0.01 0.01 0.01 0.01
0.00 0.00 0.00 0.00 0.00 0.00 0.00 0.00 0.00 0.00 0.00 0.00 0.00 0.00 0.00 0.01 0.00 0.00 0.00 0.00 0.00 0.00 0.01 0.01 0.01 0.01 0.03 0.05 0.05 0.06 0.06 0.04 0.04 0.03 0.02 0.01 0.00 0.00 0.00 0.00 0.00 0.00 0.00 0.00 0.00 0.00 0.00 0.01 0.01
0.01 0.00 0.00 0.00 0.00 0.00 0.00 0.00 0.00 0.00 0.00 0.00 0.00 0.00 0.00 0.01 0.01 0.01 0.00 0.00 0.00 0.00 0.00 0.01 0.00 0.00 0.01 0.02 0.06 0.08 0.07 0.06 0.05 0.04 0.03 0.03 0.02 0.01 0.01 0.01 0.00 0.00 0.00 0.00 0.00 0.00 0.00 0.00 0.00
0.02 0.01 0.00 0.00 0.00 0.00 0.00 0.00 0.00 0.00 0.00 0.00 0.00 0.00 0.00 0.00 0.00 0.00 0.00 0.00 0.00 0.01 0.01 0.01 0.01 0.01 0.01 0.01 0.02 0.06 0.09 0.08 0.06 0.05 0.04 0.03 0.03 0.02 0.02 0.01 0.01 0.01 0.01 0.00 0.00 0.00 0.00 0.00 0.00
0.02 0.01 0.00 0.00 0.00 0.00 0.00 0.00 0.00 0.00 0.00 0.00 0.00 0.00 0.00 0.00 0.00 0.00 0.00 0.00 0.00 0.00 0.01 0.01 0.01 0.01 0.02 0.01 0.01 0.02 0.04 0.06 0.07 0.05 0.04 0.04 0.03 0.02 0.02 0.01 0.01 0.01 0.00 0.00 0.00 0.00 0.00 0.00 0.00
0.02 0.01 0.01 0.00 0.00 0.00 0.00 0.00 0.00 0.00 0.00 0.00 0.00 0.00 0.00 0.00 0.00 0.00 0.00 0.00 0.00 0.00 0.00 0.01 0.01 0.01 0.02 0.02 0.01 0.01 0.01 0.02 0.05 0.07 0.06 0.05 0.03 0.02 0.02 0.01 0.01 0.00 0.00 0.00 0.00 0.00 0.00 0.00 0.00
0.02 0.02 0.01 0.00 0.00 0.00 0.00 0.00 0.00 0.00 0.00 0.00 0.00 0.00 0.00 0.00 0.00 0.00 0.00 0.00 0.00 0.00 0.00 0.01 0.01 0.01 0.02 0.02 0.01 0.01 0.01 0.01 0.02 0.06 0.11 0.11 0.07 0.03 0.02 0.02 0.02 0.01 0.00 0.00 0.00 0.01 0.00 0.00 0.00
0.02 0.02 0.01 0.00 0.00 0.00 0.01 0.01 0.00 0.00 0.00 0.00 0.00 0.00 0.00 0.00 0.00 0.00 0.00 0.00 0.00 0.00 0.00 0.00 0.01 0.01 0.01 0.03 0.02 0.01 0.01 0.01 0.01 0.01 0.04 0.10 0.14 0.12 0.06 0.02 0.02 0.01 0.01 0.00 0.00 0.00 0.00 0.01 0.00
0.02 0.01 0.01 0.01 0.01 0.01 0.00 0.01 0.00 0.00 0.00 0.00 0.00 0.00 0.00 0.00 0.00 0.00 0.00 0.00 0.00 0.00 0.00 0.00 0.00 0.01 0.01 0.01 0.02 0.01 0.00 0.00 0.00 0.00 0.01 0.03 0.07 0.12 0.13 0.09 0.05 0.02 0.01 0.01 0.01 0.00 0.00 0.01 0.01
0.02 0.01 0.01 0.01 0.01 0.01 0.00 0.01 0.00 0.00 0.00 0.00 0.00 0.00 0.00 0.00 0.00 0.00 0.00 0.00 0.00 0.00 0.00 0.00 0.00 0.00 0.01 0.01 0.01 0.01 0.01 0.00 0.00 0.00 0.01 0.01 0.02 0.05 0.09 0.11 0.11 0.08 0.04 0.01 0.01 0.01 0.00 0.00 0.00
0.02 0.01 0.02 0.02 0.02 0.02 0.00 0.00 0.01 0.00 0.01 0.01 0.00 0.00 0.00 0.00 0.00 0.00 0.00 0.00 0.00 0.00 0.00 0.00 0.01 0.00 0.01 0.02 0.01 0.01 0.01 0.01 0.00 0.00 0.00 0.01 0.00 0.01 0.03 0.05 0.07 0.09 0.09 0.06 0.03 0.01 0.01 0.01 0.00
0.03 0.04 0.05 0.05 0.04 0.01 0.00 0.00 0.01 0.01 0.01 0.01 0.01 0.00 0.00 0.00 0.00 0.00 0.00 0.00 0.00 0.00 0.00 0.00 0.00 0.00 0.00 0.01 0.01 0.01 0.01 0.00 0.01 0.01 0.01 0.01 0.00 0.00 0.00 0.01 0.02 0.03 0.05 0.08 0.08 0.06 0.03 0.02 0.01
0.04 0.04 0.03 0.03 0.02 0.01 0.00 0.00 0.00 0.00 0.00 0.00 0.00 0.00 0.00 0.00 0.00 0.00 0.00 0.00 0.00 0.00 0.00 0.00 0.00 0.00 0.01 0.01 0.01 0.01 0.01 0.01 0.01 0.01 0.01 0.01 0.00 0.00 0.00 0.00 0.00 0.01 0.02 0.03 0.05 0.08 0.07 0.05 0.03
0.03 0.02 0.01 0.02 0.01 0.01 0.00 0.00 0.00 0.00 0.00 0.00 0.00 0.00 0.00 0.00 0.00 0.00 0.00 0.00 0.00 0.00 0.00 0.00 0.00 0.00 0.01 0.01 0.01 0.01 0.01 0.01 0.01 0.01 0.01 0.01 0.00 0.00 0.00 0.00 0.00 0.00 0.01 0.01 0.02 0.03 0.05 0.07 0.07
0.03 0.03 0.03 0.03 0.03 0.01 0.00 0.00 0.01 0.00 0.00 0.00 0.00 0.00 0.00 0.00 0.00 0.00 0.00 0.00 0.00 0.00 0.00 0.00 0.00 0.00 0.01 0.00 0.00 0.01 0.01 0.01 0.01 0.01 0.01 0.01 0.00 0.00 0.00 0.00 0.00 0.00 0.00 0.00 0.01 0.01 0.02 0.04 0.06
0.03 0.04 0.04 0.04 0.03 0.02 0.01 0.01 0.01 0.01 0.01 0.01 0.00 0.00 0.00 0.00 0.00 0.00 0.00 0.00 0.00 0.00 0.00 0.00 0.00 0.00 0.00 0.01 0.00 0.00 0.01 0.01 0.01 0.01 0.02 0.01 0.01 0.00 0.00 0.00 0.00 0.00 0.00 0.00 0.00 0.00 0.01 0.01 0.02
0.02 0.03 0.04 0.04 0.03 0.02 0.01 0.01 0.01 0.01 0.01 0.01 0.00 0.00 0.00 0.00 0.00 0.00 0.00 0.00 0.00 0.00 0.00 0.00 0.00 0.00 0.00 0.01 0.01 0.00 0.00 0.00 0.01 0.01 0.01 0.01 0.01 0.01 0.00 0.00 0.00 0.00 0.00 0.00 0.00 0.00 0.00 0.00 0.01
MSLP
1012.21 1012.77 1013.40 1013.98 1014.41 1014.62 1014.55 1014.21 1013.66 1013.00 1012.35 1011.83 1011.53 1011.50 1011.71 1012.11 1012.60 1013.09 1013.48 1013.73 1013.83 1013.82 1013.76 1013.70 1013.71 1013.80 1013.95 1014.13 1014.29 1014.37 1014.36 1014.27 1014.11 1013.93 1013.79 1013.71 1013.70 1013.76 1013.84 1013.92 1013.97 1013.97 1013.92 1013.86 1013.80 1013.76 1013.79 1013.87 1013.99
1012.60 1013.22 1013.83 1014.32 1014.61 1014.62 1014.35 1013.82 1013.13 1012.39 1011.74 1011.28 1011.08 1011.16 1011.48 1011.97 1012.52 1013.02 1013.40 1013.63 1013.72 1013.72 1013.68 1013.67 1013.74 1013.90 1014.13 1014.38 1014.59 1014.73 1014.77 1014.70 1014.57 1014.41 1014.27 1014.19 1014.16 1014.19 1014.24 1014.28 1014.29 1014.25 1014.18 1014.08 1014.00 1013.94 1013.94 1013.99 1014.10
1013.04 1013.68 1014.24 1014.61 1014.72 1014.53 1014.07 1013.38 1012.60 1011.83 1011.22 1010.86 1010.78 1010.98 1011.41 1011.96 1012.53 1013.03 1013.39 1013.60 1013.68 1013.68 1013.67 1013.72 1013.86 1014.09 1014.38 1014.68 1014.95 1015.12 1015.18 1015.14 1015.03 1014.88 1014.74 1014.64 1014.59 1014.58 1014.58 1014.58 1014.54 1014.47 1014.37 1014.26 1014.16 1014.09 1014.07 1014.11 1014.20
1013.49 1014.10 1014.56 1014.79 1014.72 1014.35 1013.72 1012.93 1012.10 1011.36 1010.83 1010.59 1010.64 1010.96 1011.47 1012.06 1012.64 1013.12 1013.45 1013.64 1013.71 1013.73 1013.77 1013.88 1014.08 1014.37 1014.71 1015.05 1015.33 1015.52 1015.60 1015.57 1015.46 1015.32 1015.18 1015.07 1015.00 1014.95 1014.91 1014.86 1014.78 1014.68 1014.55 1014.42 1014.31 1014.23 1014.20 1014.23 1014.31
1013.85 1014.40 1014.75 1014.83 1014.60 1014.07 1013.33 1012.48 1011.66 1010.99 1010.58 1010.46 1010.64 1011.06 1011.62 1012.24 1012.81 1013.26 1013.56 1013.73 1013.82 1013.88 1013.97 1014.14 1014.40 1014.74 1015.11 1015.45 1015.74 1015.92 1015.99 1015.96 1015.86 1015.73 1015.60 1015.49 1015.40 1015.33 1015.26 1015.17 1015.05 1014.91 1014.75 1014.60 1014.47 1014.38 1014.34 1014.35 1014.42
1014.10 1014.55 1014.77 1014.70 1014.32 1013.69 1012.89 1012.05 1011.29 1010.73 1010.45 1010.46 1010.75 1011.23 1011.83 1012.44 1012.98 1013.40 1013.68 1013.85 1013.97 1014.08 1014.24 1014.48 1014.79 1015.15 1015.53 1015.86 1016.12 1016.28 1016.33 1016.30 1016.21 1016.11 1016.00 1015.90 1015.82 1015.75 1015.65 1015.53 1015.38 1015.19 1015.00 1014.81 1014.65 1014.54 1014.47 1014.46 1014.50
1014.18 1014.52 1014.61 1014.41 1013.93 1013.24 1012.44 1011.65 1010.99 1010.57 1010.42 1010.55 1010.91 1011.44 1012.03 1012.61 1013.11 1013.49 1013.76 1013.95 1014.12 1014.30 1014.53 1014.83 1015.19 1015.57 1015.94 1016.24 1016.46 1016.58 1016.62 1016.59 1016.52 1016.45 1016.38 1016.32 1016.27 1016.20 1016.10 1015.96 1015.77 1015.54 1015.30 1015.07 1014.87 1014.71 1014.60 1014.55 1014.54
1014.13 1014.35 1014.31 1014.00 1013.46 1012.76 1012.01 1011.31 1010.78 1010.49 1010.46 1010.68 1011.09 1011.62 1012.18 1012.70 1013.14 1013.49 1013.76 1013.99 1014.21 1014.48 1014.79 1015.16 1015.56 1015.94 1016.28 1016.55 1016.73 1016.82 1016.84 1016.81 1016.78 1016.76 1016.75 1016.74 1016.73 1016.68 1016.58 1016.42 1016.20 1015.93 1015.65 1015.36 1015.10 1014.88 1014.71 1014.60 1014.55
1013.98 1014.08 1013.93 1013.55 1012.98 1012.31 1011.63 1011.05 1010.65 1010.48 1010.55 1010.82 1011.24 1011.73 1012.23 1012.68 1013.07 1013.38 1013.66 1013.92 1014.22 1014.56 1014.96 1015.39 1015.82 1016.22 1016.54 1016.78 1016.92 1016.99 1017.00 1017.00 1017.00 1017.04 1017.08 1017.14 1017.17 1017.15 1017.06 1016.88 1016.64 1016.33 1015.99 1015.65 1015.32 1015.04 1014.80 1014.63 1014.52
1013.77 1013.76 1013.53 1013.10 1012.54 1011.92 1011.34 1010.88 1010.59 1010.52 1010.65 1010.93 1011.32 1011.75 1012.16 1012.53 1012.85 1013.14 1013.42 1013.74 1014.10 1014.53 1015.00 1015.50 1015.97 1016.38 1016.69 1016.91 1017.04 1017.10 1017.12 1017.15 1017.20 1017.28 1017.38 1017.49 1017.56 1017.56 1017.48 1017.30 1017.03 1016.69 1016.31 1015.91 1015.53 1015.18 1014.88 1014.65 1014.48
1013.54 1013.44 1013.15 1012.71 1012.18 1011.63 1011.15 1010.79 1010.60 1010.59 1010.73 1010.99 1011.31 1011.64 1011.96 1012.24 1012.50 1012.76 1013.05 1013.41 1013.85 1014.35 1014.90 1015.45 1015.96 1016.40 1016.73 1016.96 1017.09 1017.17 1017.22 1017.28 1017.37 1017.49 1017.64 1017.77 1017.86 1017.88 1017.80 1017.62 1017.34 1016.98 1016.57 1016.14 1015.71 1015.31 1014.96 1014.67 1014.46
1013.31 1013.15 1012.82 1012.39 1011.91 1011.44 1011.04 1010.76 1010.63 1010.64 1010.76 1010.95 1011.18 1011.40 1011.61 1011.80 1012.01 1012.24 1012.55 1012.95 1013.45 1014.02 1014.63 1015.24 1015.81 1016.29 1016.66 1016.92 1017.10 1017.21 1017.30 1017.40 1017.52 1017.67 1017.83 1017.97 1018.07 1018.09 1018.01 1017.83 1017.55 1017.20 1016.78 1016.33 1015.88 1015.44 1015.05 1014.72 1014.47
1013.09 1012.88 1012.55 1012.14 1011.71 1011.31 1010.99 1010.77 1010.65 1010.64 1010.70 1010.80 1010.91 1011.01 1011.12 1011.23 1011.38 1011.61 1011.93 1012.36 1012.91 1013.54 1014.21 1014.88 1015.51 1016.05 1016.48 1016.82 1017.06 1017.24 1017.38 1017.52 1017.67 1017.82 1017.97 1018.10 1018.18 1018.18 1018.11 1017.94 1017.68 1017.34 1016.94 1016.51 1016.05 1015.60 1015.19 1014.82 1014.53
1012.87 1012.63 1012.31 1011.95 1011.58 1011.25 1010.97 1010.77 1010.64 1010.56 1010.52 1010.50 1010.48 1010.47 1010.48 1010.52 1010.64 1010.86 1011.20 1011.66 1012.25 1012.92 1013.65 1014.38 1015.07 1015.69 1016.22 1016.65 1016.98 1017.25 1017.46 1017.64 1017.80 1017.94 1018.07 1018.16 1018.20 1018.20 1018.12 1017.96 1017.74 1017.44 1017.09 1016.69 1016.26 1015.81 1015.38 1014.99 1014.66
1012.64 1012.40 1012.12 1011.81 1011.51 1011.23 1010.98 1010.76 1010.57 1010.40 1010.23 1010.08 1009.93 1009.80 1009.72 1009.72 1009.82 1010.04 1010.39 1010.89 1011.50 1012.22 1012.99 1013.77 1014.54 1015.25 1015.88 1016.43 1016.88 1017.24 1017.53 1017.75 1017.92 1018.04 1018.13 1018.18 1018.19 1018.16 1018.08 1017.96 1017.78 1017.55 1017.26 1016.91 1016.51 1016.08 1015.64 1015.23 1014.87
1012.41 1012.20 1011.98 1011.74 1011.51 1011.28 1011.03 1010.77 1010.49 1010.19 1009.88 1009.57 1009.29 1009.06 1008.91 1008.87 1008.96 1009.19 1009.57 1010.09 1010.73 1011.47 1012.27 1013.11 1013.94 1014.75 1015.49 1016.16 1016.73 1017.20 1017.57 1017.84 1018.02 1018.13 1018.17 1018.18 1018.16 1018.11 1018.05 1017.97 1017.85 1017.69 1017.47 1017.18 1016.83 1016.42 1015.98 1015.54 1015.14
1012.21 1012.07 1011.93 1011.79 1011.63 1011.43 1011.17 1010.85 1010.46 1010.01 1009.53 1009.07 1008.65 1008.32 1008.12 1008.05 1008.14 1008.39 1008.80 1009.33 1009.99 1010.74 1011.56 1012.44 1013.33 1014.22 1015.07 1015.86 1016.55 1017.13 1017.58 1017.89 1018.09 1018.19 1018.20 1018.18 1018.13 1018.09 1018.05 1018.01 1017.96 1017.88 1017.73 1017.51 1017.21 1016.83 1016.39 1015.93 1015.49
1012.08 1012.04 1012.01 1011.99 1011.91 1011.74 1011.46 1011.05 1010.52 1009.91 1009.26 1008.64 1008.09 1007.67 1007.42 1007.34 1007.44 1007.72 1008.14 1008.69 1009.35 1010.10 1010.93 1011.82 1012.76 1013.71 1014.65 1015.53 1016.33 1017.00 1017.52 1017.89 1018.11 1018.21 1018.22 1018.18 1018.13 1018.09 1018.09 1018.10 1018.12 1018.11 1018.04 1017.88 1017.63 1017.28 1016.85 1016.39 1015.92
1012.04 1012.14 1012.27 1012.37 1012.38 1012.24 1011.93 1011.42 1010.75 1009.96 1009.13 1008.35 1007.68 1007.18 1006.89 1006.81 1006.93 1007.23 1007.67 1008.23 1008.89 1009.62 1010.44 1011.32 1012.26 1013.25 1014.24 1015.19 1016.06 1016.81 1017.40 1017.82 1018.07 1018.18 1018.20 1018.16 1018.13 1018.12 1018.16 1018.23 1018.31 1018.36 1018.36 1018.26 1018.06 1017.74 1017.34 1016.89 1016.42
1012.12 1012.39 1012.69 1012.94 1013.04 1012.93 1012.56 1011.95 1011.13 1010.17 1009.18 1008.25 1007.47 1006.90 1006.59 1006.51 1006.66 1006.98 1007.44 1008.00 1008.64 1009.34 1010.11 1010.96 1011.88 1012.86 1013.87 1014.85 1015.76 1016.56 1017.20 1017.66 1017.94 1018.08 1018.13 1018.12 1018.12 1018.16 1018.24 1018.36 1018.50 1018.61 1018.66 1018.62 1018.46 1018.20 1017.84 1017.42 1016.98
1012.32 1012.78 1013.26 1013.64 1013.82 1013.73 1013.32 1012.60 1011.64 1010.52 1009.38 1008.32 1007.46 1006.85 1006.53 1006.47 1006.65 1007.00 1007.48 1008.02 1008.63 1009.28 1009.99 1010.77 1011.63 1012.56 1013.54 1014.51 1015.43 1016.24 1016.91 1017.40 1017.72 1017.90 1017.99 1018.03 1018.08 1018.16 1018.29 1018.46 1018.64 1018.80 1018.90 1018.91 1018.81 1018.60 1018.31 1017.96 1017.58
1012.61 1013.26 1013.90 1014.39 1014.63 1014.54 1014.07 1013.26 1012.17 1010.92 1009.67 1008.53 1007.62 1007.00 1006.69 1006.67 1006.88 1007.26 1007.74 1008.27 1008.83 1009.41 1010.03 1010.72 1011.49 1012.34 1013.25 1014.18 1015.07 1015.87 1016.54 1017.05 1017.41 1017.63 1017.77 1017.87 1017.97 1018.10 1018.28 1018.50 1018.72 1018.92 1019.05 1019.10 1019.06 1018.93 1018.72 1018.47 1018.19
1012.98 1013.78 1014.52 1015.09 1015.35 1015.23 1014.70 1013.80 1012.61 1011.28 1009.96 1008.78 1007.87 1007.27 1007.00 1007.04 1007.30 1007.70 1008.19 1008.68 1009.18 1009.68 1010.20 1010.78 1011.43 1012.18 1012.99 1013.84 1014.67 1015.44 1016.10 1016.62 1017.00 1017.27 1017.47 1017.62 1017.78 1017.97 1018.20 1018.45 1018.71 1018.93 1019.10 1019.19 1019.21 1019.15 1019.05 1018.91 1018.75
1013.42 1014.28 1015.08 1015.65 1015.89 1015.72 1015.11 1014.13 1012.88 1011.51 1010.17 1009.01 1008.14 1007.61 1007.42 1007.52 1007.83 1008.26 1008.73 1009.20 1009.62 1010.03 1010.44 1010.89 1011.42 1012.04 1012.74 1013.50 1014.26 1014.97 1015.61 1016.12 1016.53 1016.84 1017.08 1017.30 1017.52 1017.76 1018.03 1018.32 1018.60 1018.84 1019.03 1019.16 1019.24 1019.27 1019.27 1019.25 1019.23
1013.90 1014.76 1015.52 1016.04 1016.20 1015.94 1015.25 1014.21 1012.93 1011.56 1010.26 1009.18 1008.40 1007.97 1007.88 1008.05 1008.41 1008.86 1009.32 1009.72 1010.07 1010.38 1010.67 1011.00 1011.40 1011.90 1012.49 1013.15 1013.83 1014.48 1015.08 1015.59 1016.00 1016.34 1016.63 1016.90 1017.17 1017.47 1017.78 1018.09 1018.39 1018.65 1018.87 1019.04 1019.17 1019.27 1019.37 1019.47 1019.58
1014.44 1015.22 1015.87 1016.26 1016.29 1015.91 1015.15 1014.06 1012.78 1011.46 1010.26 1009.29 1008.65 1008.34 1008.35 1008.60 1009.00 1009.45 1009.87 1010.21 1010.47 1010.67 1010.85 1011.07 1011.36 1011.74 1012.23 1012.80 1013.40 1014.00 1014.55 1015.04 1015.45 1015.81 1016.13 1016.44 1016.76 1017.09 1017.44 1017.78 1018.10 1018.39 1018.63 1018.83 1019.00 1019.17 1019.35 1019.56 1019.78
1015.06 1015.68 1016.16 1016.37 1016.23 1015.72 1014.87 1013.76 1012.51 1011.28 1010.20 1009.39 1008.89 1008.72 1008.83 1009.14 1009.56 1009.99 1010.36 1010.62 1010.79 1010.88 1010.96 1011.07 1011.27 1011.56 1011.97 1012.46 1012.99 1013.53 1014.04 1014.50 1014.90 1015.27 1015.60 1015.94 1016.29 1016.65 1017.03 1017.40 1017.74 1018.05 1018.31 1018.54 1018.75 1018.97 1019.21 1019.49 1019.80
1015.72 1016.15 1016.42 1016.42 1016.10 1015.46 1014.54 1013.42 1012.23 1011.11 1010.18 1009.52 1009.18 1009.13 1009.33 1009.68 1010.09 1010.47 1010.76 1010.93 1011.00 1011.00 1010.99 1011.02 1011.14 1011.38 1011.72 1012.15 1012.63 1013.11 1013.58 1014.00 1014.38 1014.73 1015.06 1015.41 1015.77 1016.16 1016.56 1016.95 1017.32 1017.65 1017.93 1018.19 1018.43 1018.68 1018.96 1019.29 1019.65
1016.38 1016.61 1016.67 1016.47 1015.99 1015.23 1014.25 1013.15 1012.04 1011.04 1010.26 1009.76 1009.54 1009.59 1009.84 1010.20 1010.56 1010.87 1011.07 1011.14 1011.11 1011.03 1010.95 1010.92 1011.00 1011.20 1011.51 1011.90 1012.33 1012.78 1013.19 1013.57 1013.91 1014.22 1014.54 1014.87 1015.23 1015.62 1016.03 1016.45 1016.84 1017.19 1017.50 1017.78 1018.04 1018.31 1018.61 1018.96 1019.35
1016.96 1017.02 1016.89 1016.52 1015.90 1015.05 1014.05 1012.99 1011.96 1011.09 1010.45 1010.08 1009.97 1010.08 1010.34 1010.67 1010.97 1011.19 1011.28 1011.26 1011.15 1011.00 1010.87 1010.82 1010.88 1011.07 1011.36 1011.73 1012.13 1012.53 1012.89 1013.22 1013.50 1013.76 1014.04 1014.33 1014.68 1015.06 1015.47 1015.90 1016.31 1016.68 1017.02 1017.31 1017.59 1017.87 1018.17 1018.52 1018.91
Thickness
5700 5701 5700 5692 5675 5660 5663 5676 5689 5695 5700 5707 5709 5707 5702 5699 5699 5695 5703 5709 5709 5708 5707 5707 5707 5707 5707 5706 5706 5707 5707 5707 5707 5707 5707 5707 5707 5708 5707 5707 5707 5707 5707 5707 5707 5707 5706 5706 5706
5695 5695 5688 5676 5659 5650 5660 5676 5684 5693 5701 5704 5703 5701 5696 5694 5698 5699 5701 5704 5705 5704 5703 5702 5702 5703 5702 5702 5702 5702 5703 5703 5703 5703 5703 5703 5703 5703 5703 5703 5703 5703 5702 5702 5702 5702 5702 5702 5701
5689 5688 5673 5660 5652 5652 5665 5679 5685 5695 5700 5699 5694 5693 5691 5690 5695 5696 5700 5701 5700 5699 5698 5698 5698 5698 5698 5698 5698 5698 5698 5698 5699 5699 5699 5699 5699 5699 5699 5698 5698 5698 5698 5697 5697 5697 5697 5697 5697
5680 5671 5662 5651 5651 5661 5671 5679 5685 5687 5692 5694 5689 5682 5685 5690 5692 5695 5697 5696 5694 5693 5693 5693 5693 5693 5693 5693 5693 5694 5693 5694 5694 5694 5694 5694 5694 5694 5694 5693 5693 5693 5693 5693 5693 5692 5692 5692 5692
5669 5658 5648 5642 5650 5661 5671 5678 5680 5680 5682 5684 5682 5676 5677 5685 5689 5690 5691 5691 5688 5686 5687 5687 5687 5687 5687 5687 5688 5688 5688 5688 5688 5688 5688 5688 5688 5688 5688 5688 5688 5687 5687 5687 5687 5687 5687 5687 5687
5652 5646 5635 5635 5648 5659 5668 5675 5675 5674 5676 5677 5674 5669 5671 5678 5681 5682 5683 5683 5682 5681 5680 5681 5681 5681 5681 5681 5682 5682 5682 5683 5683 5682 5682 5682 5682 5682 5682 5682 5682 5682 5682 5681 5681 5681 5681 5681 5681
5643 5636 5633 5639 5645 5652 5663 5670 5668 5667 5669 5671 5672 5663 5664 5669 5673 5675 5676 5676 5676 5675 5674 5674 5674 5674 5675 5675 5675 5675 5675 5676 5676 5676 5676 5676 5676 5676 5676 5676 5676 5676 5675 5675 5675 5675 5675 5675 5674
5642 5633 5633 5635 5641 5648 5661 5665 5665 5664 5664 5668 5668 5658 5657 5664 5667 5667 5667 5667 5668 5667 5667 5667 5668 5668 5668 5668 5668 5668 5668 5668 5668 5669 5669 5669 5669 5669 5669 5669 5669 5669 5669 5669 5668 5668 5668 5668 5667
5638 5623 5623 5633 5639 5646 5655 5655 5657 5660 5658 5659 5660 5661 5662 5662 5661 5659 5657 5657 5658 5659 5659 5660 5661 5661 5661 5661 5661 5661 5661 5661 5661 5661 5661 5661 5661 5661 5662 5662 5662 5662 5662 5661 5661 5661 5661 5660 5660
5623 5614 5625 5637 5642 5644 5647 5647 5648 5649 5647 5646 5649 5652 5654 5654 5653 5652 5650 5650 5650 5651 5652 5653 5654 5653 5653 5653 5653 5653 5653 5653 5653 5653 5653 5654 5654 5654 5654 5654 5655 5654 5654 5654 5654 5654 5653 5653 5653
5618 5615 5625 5632 5637 5640 5639 5640 5642 5640 5637 5641 5642 5644 5644 5644 5644 5644 5645 5644 5645 5644 5645 5645 5646 5646 5646 5646 5645 5645 5645 5645 5645 5645 5645 5646 5646 5646 5646 5646 5646 5646 5646 5646 5646 5646 5646 5645 5645
5612 5617 5622 5626 5630 5632 5631 5632 5631 5634 5637 5641 5641 5640 5638 5637 5637 5638 5638 5638 5638 5638 5638 5638 5638 5638 5638 5638 5638 5637 5637 5637 5637 5638 5638 5638 5638 5638 5638 5639 5639 5639 5639 5639 5639 5638 5638 5638 5638
5606 5611 5616 5619 5621 5622 5623 5623 5624 5627 5632 5633 5633 5632 5631 5631 5631 5631 5632 5631 5631 5631 5631 5631 5631 5631 5630 5630 5630 5630 5630 5630 5630 5630 5631 5631 5630 5630 5630 5630 5631 5631 5631 5631 5631 5630 5630 5630 5630
5601 5603 5607 5611 5613 5615 5613 5615 5616 5622 5625 5624 5624 5623 5623 5624 5625 5624 5624 5624 5624 5625 5625 5624 5624 5624 5623 5623 5623 5623 5623 5623 5623 5623 5623 5623 5623 5623 5622 5622 5623 5623 5623 5624 5623 5622 5622 5622 5621
5594 5592 5595 5601 5604 5606 5605 5604 5611 5618 5617 5616 5616 5616 5616 5617 5618 5618 5620 5619 5619 5619 5619 5618 5617 5617 5617 5616 5616 5616 5615 5616 5616 5616 5616 5616 5616 5616 5615 5615 5615 5615 5615 5615 5615 5614 5613 5613 5612
5582 5578 5578 5592 5597 5598 5594 5594 5609 5610 5608 5608 5608 5608 5609 5611 5612 5613 5614 5614 5614 5613 5612 5611 5611 5610 5610 5610 5609 5609 5608 5608 5608 5608 5608 5608 5608 5608 5608 5607 5607 5607 5607 5607 5606 5605 5604 5603 5603
5565 5562 5569 5582 5590 5588 5585 5587 5600 5602 5602 5601 5601 5602 5603 5603 5605 5607 5607 5607 5607 5607 5605 5604 5603 5603 5603 5602 5602 5601 5601 5601 5601 5601 5601 5600 5600 5601 5600 5599 5599 5599 5598 5598 5598 5596 5595 5594 5593
5556 5556 5564 5571 5581 5578 5576 5582 5591 5593 5595 5595 5595 5595 5596 5598 5601 5602 5601 5601 5600 5600 5599 5597 5596 5596 5595 5594 5593 5592 5591 5592 5593 5593 5593 5593 5592 5592 5592 5591 5591 5590 5589 5588 5588 5586 5585 5584 5583
5559 5556 5558 5567 5574 5570 5569 5576 5584 5587 5586 5587 5587 5588 5589 5593 5595 5594 5593 5593 5592 5592 5591 5591 5589 5589 5587 5586 5584 5583 5583 5583 5584 5584 5585 5585 5585 5585 5584 5583 5582 5581 5580 5579 5578 5577 5575 5574 5573
5550 5548 5551 5557 5564 5563 5561 5567 5577 5581 5582 5586 5586 5584 5584 5584 5585 5586 5585 5584 5584 5585 5584 5584 5583 5582 5582 5580 5579 5577 5576 5576 5576 5577 5577 5577 5577 5577 5576 5575 5574 5572 5571 5569 5568 5568 5565 5564 5563
5541 5539 5542 5544 5550 5552 5550 5555 5567 5577 5578 5580 5582 5582 5581 5580 5580 5580 5579 5578 5577 5577 5578 5579 5577 5576 5575 5574 5571 5569 5567 5567 5567 5568 5568 5569 5569 5568 5568 5567 5566 5564 5562 5561 5560 5559 5557 5554 5553
5533 5540 5539 5536 5530 5527 5536 5532 5558 5566 5570 5574 5575 5574 5574 5576 5575 5575 5574 5572 5571 5571 5571 5571 5571 5570 5568 5567 5565 5563 5561 5560 5561 5561 5561 5561 5560 5560 5559 5558 5557 5556 5554 5553 5551 5550 5548 5547 5543
5530 5534 5531 5528 5521 5517 5523 5519 5546 5555 5562 5570 5572 5570 5570 5570 5570 5570 5569 5568 5566 5564 5563 5563 5563 5562 5561 5560 5559 5557 5555 5553 5553 5552 5552 5552 5552 5552 5551 5550 5549 5547 5545 5544 5543 5541 5539 5538 5536
5524 5521 5515 5507 5503 5505 5520 5515 5533 5545 5561 5568 5569 5567 5566 5565 5564 5563 5562 5559 5557 5555 5554 5554 5554 5554 5553 5552 5551 5549 5547 5545 5544 5544 5543 5543 5543 5543 5542 5541 5540 5539 5537 5535 5534 5533 5531 5529 5527
5511 5502 5492 5491 5489 5502 5515 5515 5532 5554 5560 5564 5564 5562 5559 5558 5557 5555 5554 5552 5550 5548 5547 5547 5546 5545 5545 5544 5543 5542 5540 5539 5538 5537 5536 5536 5535 5534 5533 5532 5531 5530 5528 5527 5526 5524 5522 5520 5518
5500 5499 5491 5490 5488 5496 5505 5509 5535 5551 5555 5557 5557 5555 5552 5550 5549 5549 5548 5546 5544 5543 5541 5540 5539 5538 5537 5536 5535 5534 5532 5531 5530 5530 5529 5529 5528 5527 5525 5524 5523 5521 5520 5518 5517 5515 5513 5511 5509
5493 5490 5495 5485 5480 5483 5496 5510 5530 5546 5546 5547 5546 5544 5542 5542 5541 5541 5539 5538 5537 5536 5535 5533 5532 5531 5529 5528 5527 5525 5524 5523 5522 5522 5521 5521 5520 5519 5517 5515 5514 5512 5511 5509 5508 5506 5504 5502 5500
5492 5486 5477 5476 5480 5486 5497 5504 5518 5535 5537 5539 5537 5535 5534 5533 5532 5532 5531 5530 5529 5528 5527 5525 5524 5523 5522 5520 5519 5518 5516 5515 5514 5513 5512 5512 5511 5510 5508 5507 5505 5504 5502 5500 5499 5497 5496 5494 5492
5479 5477 5476 5471 5472 5477 5482 5507 5526 5530 5533 5530 5529 5527 5525 5524 5524 5523 5521 5521 5520 5518 5517 5517 5516 5515 5513 5512 5511 5509 5507 5506 5506 5505 5504 5504 5503 5501 5500 5499 5497 5495 5494 5492 5490 5489 5487 5485 5483
5474 5474 5468 5469 5467 5466 5473 5499 5524 5522 5523 5523 5521 5520 5518 5517 5516 5515 5513 5511 5510 5509 5508 5508 5507 5506 5505 5503 5502 5500 5499 5498 5497 5496 5496 5495 5494 5493 5491 5490 5488 5487 5485 5483 5482 5480 5478 5476 5475